Location: Newark
(48.1500°N, 2.9667°W)
Time: 07:22:19
(UTC+00:00)

Altair - Pass Details

Date: 03 February 2020
Orbit: 1502 x 1682 km, 47.2° (Epoch: 17 February)

Event Time Altitude Azimuth Distance (km) Brightness Sun altitude
Rises 10:10:58 0° 277° (W) 4,898 9.8 18.6°
Reaches altitude 10° 10:14:06 10° 277° (W) 3,925 9.3 18.9°
Maximum altitude 10:24:14 81° 192° (SSW) 1,703 8.2 19.8°
Drops below altitude 10° 10:34:23 10° 107° (ESE) 3,927 10.5 20.6°
Sets 10:37:31 0° 107° (ESE) 4,901 10.8 20.9°
